STARLINK-31007, 58889

Orbit data source: Space-Track

STARLINK-31007, 58889 is a payload satellite owned by SpaceX/Seattle (US) in LEO that was launched on Mon, 29 Jan 2024 UTC via an FALCON 9 launch vehicle from the Air Force Western Test Range (AFWTR). Payload-class satellites include a variety of spacecraft equipped with specific instruments for various scientific and technological missions. These include communications satellites like Starlink; space stations such as the ISS; scientific satellites like the Hubble; Earth observation satellites from companies like Planet Labs, Umbra, and HawkEye 360; GPS; miniature CubeSats for education and research; and military/defense satellites.

Loading next visibility...
Identifier
58889, 2024-020P
Orbit
LEO
Country
Flag of USUS
Related business
Manufacturer
SpaceX/Seattle
Mission
Operational Commercial Communications
Bus & Motor
STARLINK V2M, Unknown motor
Mass
730 kg wet, ~700 kg dry
Launch date (UTC)
2024-01-29 (2 years ago)
Launch vehicle
FALCON 9
Launch site
Air Force Western Test Range (AFWTR)
Object type
Payload
Rocket body
Debris
Shape & HBR
Box + 2 Pan, 17.7 m
Radar Cross Section
33.884 m², Large (>1 m²)

Expand to show TLE details & history
Last TLE update: 2 days ago

TLE from 2 days ago
0 STARLINK-31007
1 58889U 24020P   26171.40373484 -.00002085  00000-0 -50617-4 0  9996
2 58889  53.1580 204.1504 0000971 130.5678 229.5410 15.34386965133814
Epoch: 2026-06-20T09:41Z
TLE epoch observation values (Epoch: 2026-06-20T09:41:22.690Z)
Latitude
0.00006°
Longitude
150.18705°
Altitude
464.074 km
Speed
7.635 km/s
True Right ascension
13h 36m 36s
True Declination
0° 00' 00"
Sunlit
Object was in full shadow at epoch
Visualization orbit readout
Latitude
Unknown
Longitude
Unknown
Altitude
Unknown
Speed
Unknown
Apparent Right ascension
Unknown
Apparent Declination
Unknown
Sunlit
N/A
Visualization observer readout
Local Sidereal Time
21:26:38
Azimuth
Unknown
Elevation
Unknown
Doppler factor
Unknown
Orbital elements
Apogee altitude
463.663 km
Perigee altitude
462.335 km
Semi-major axis
6,841.136 km
Eccentricity
0.0001
Inclination
53.158°
RAAN
204.1504°
Arg. of periapsis
130.5678°
True anomaly
229.53253°
Mean anomaly
229.541°
Eccentric anomaly
229.53677°
Mean motion
3.83575 °/min
Orbital period
93.85 mins
BSTAR
-0.000050617
Loading maneuver chart data...
Computing Atmospheric mass density...
Loading historical data...
Loading historical data...
Loading historical data...
Loading historical data...
Loading historical data...
Loading historical data...
Loading historical data...

Documentation

Showing up to 5 results
|